Location: Unspecified
(44.4377°N, 88.0525°W)
Time: 01:34:29
(UTC-05:00)

Cosmos 1674 - Visible Passes

Search period start: 01 July 2015 00:00
Search period end: 11 July 2015 00:00
Orbit: 505 x 533 km, 82.5° (Epoch: 29 June)

Date Brightness Start Highest point End Pass type
(mag) Time Alt. Az. Time Alt. Az. Time Alt. Az.
01 Jul 5.4 22:04:50 10° WSW 22:07:43 20° WNW 22:10:32 10° NNW visible
02 Jul 5.2 21:50:32 10° SW 21:53:38 23° WNW 21:56:41 10° NNW visible
03 Jul 5.0 21:36:16 10° SW 21:39:33 27° WNW 21:42:47 10° NNW visible
04 Jul 4.7 21:22:03 10° SW 21:25:28 31° WNW 21:28:52 10° NNW visible
